Hourly Data Report for October 15, 2013

All times are specified in Local Standard Time (LST). Add 1 hour to adjust for Daylight Saving Time where and when it is observed.

POND INLET A
NUNAVUT

72°41'22.000" N
77°58'08.000" W
61.60 m
2403206
71095
YIO

Download Data

Hourly Data (October 2013)
Hourly Data Report for October 15, 2013
Temp Definition
°C
Dew Point Temp Definition
°C
Rel Hum Definition
%
Wind Dir Definition
10's deg

Wind Spd Definition
km/h
Visibility Definition
km
Stn Press Definition
kPa
Hmdx Definition


Wind Chill Definition


Weather Definition


TIME
00:00 Legend Double Dagger -0.1 -4.8 71 5 28 16.1 100.37   -6 LegendNANA
01:00 Legend Double Dagger 0.1 -4.8 70 6 28 16.1 100.35     LegendNANA
02:00 Legend Double Dagger 0.1 -4.4 72 6 30 16.1 100.32     LegendNANA
03:00 Legend Double Dagger 0.1 -4.5 71 6 32 16.1 100.29     LegendNANA
04:00 Legend Double Dagger 0.3 -4.2 72 5 24 16.1 100.30     LegendNANA
05:00 Legend Double Dagger 0.1 -3.5 77 5 13 16.1 100.30     LegendNANA
06:00 Legend Double Dagger -0.4 -2.0 89   0 2.4 100.34     LegendNANA
07:00 Legend Double Dagger -1.1 -1.4 98   0 2.0 100.32     LegendNANA
08:00 Legend Double Dagger -1.1 -1.4 98 18 4 4.0 100.30   -2 LegendNANA
09:00 Legend Double Dagger -1.0 -1.3 98 19 5 2.4 100.29   -3 LegendNANA
10:00 Legend Double Dagger -1.1 -1.4 98 19 5 0.6 100.27   -3 LegendNANA
11:00 Legend Double Dagger -0.7 -1.0 98   0 16.1 100.24     LegendNANA
12:00 Legend Double Dagger -0.7 -1.0 98 19 9 16.1 100.26   -4 LegendNANA
13:00 Legend Double Dagger -0.3 -0.9 96 23 11 16.1 100.24   -4 LegendNANA
14:00 Legend Double Dagger 0.0 -1.0 93 12 9 16.1 100.22   -3 LegendNANA
15:00 Legend Double Dagger -0.2 -1.5 91 2 8 16.1 100.21   -3 LegendNANA
16:00 Legend Double Dagger -1.6 -2.6 93 15 13 16.1 100.23   -6 LegendNANA
17:00 Legend Double Dagger -0.7 -2.2 90 LegendMM 4 16.1 100.20   -2 LegendNANA
18:00 Legend Double Dagger -0.1 -1.8 88 12 9 16.1 100.16   -3 LegendNANA
19:00 Legend Double Dagger -0.9 -2.0 92   0 16.1 100.15     LegendNANA
20:00 Legend Double Dagger -0.3 -1.9 89 3 4 16.1 100.12   -2 LegendNANA
21:00 Legend Double Dagger -1.2 -2.1 94 19 8 16.1 100.07   -4 LegendNANA
22:00 Legend Double Dagger -1.2 -2.3 92 18 11 16.1 100.07   -5 LegendNANA
23:00 Legend Double Dagger -0.9 -2.8 87 29 8 16.1 100.08   -4 LegendNANA

Notes on Data Quality.

Legend

  • E = Estimated
  • M = Missing
  • NA = Not Available
  • ‡ = Partner data that is not subject to review by the National Climate Archives
Date modified: